Regional Weather Roundup
Issued by NWS

Home | Current Version | Previous Version | Graphics & Text | Print | Product List | Glossary Off
Versions: 1 2 3 4 5 6 7 8 9 10 11 12 13 14 15 16 17 18 19 20 21 22 23 24 25 26 27 28 29 30 31 32 33 34 35 36 37 38 39 40 41 42 43 44 45 46 47 48 49 50

000
ASUS43 KDMX 280407
RWRIA

WEATHER ROUNDUP FOR IOWA
NATIONAL WEATHER SERVICE DES MOINES IA
1100 PM CDT FRI MAR 27 2015

NOTE: "FAIR" INDICATES FEW OR NO CLOUDS BELOW 12,000 FEET WITH NO
SIGNIFICANT WEATHER AND/OR OBSTRUCTIONS TO VISIBILITY.

* - THESE STATIONS ARE NOT NWS STATIONS...THUS NOT UNDER NWS
QUALITY CONTROL.  THEY ALSO DO NOT REPORT WEATHER SUCH
AS PRECIPITATION OR FOG.

IAZ001>003-012>014-020>022-031>034-043>046-280500-
   NORTHWEST IOWA

CITY           SKY/WX    TMP DP  RH WIND       PRES   REMARKS
CARROLL *      CLOUDY    34  21  60 SW10      30.13S WCI  26
CHEROKEE *     FLURRIES  32  23  69 SE8       30.11S WCI  25
DENISON *      MIX PCPN  32  23  69 SE5       30.10R WCI  27
LE MARS *      CLOUDY    34  25  69 SE6       30.09F WCI  29
ORANGE CITY *  CLOUDY    32  27  80 SE3       30.09S
SHELDON *      FLURRIES  30  27  86 E10       30.09S WCI  21
SIOUX CITY     CLOUDY    35  23  61 SE9       30.08F WCI  28
SPENCER        LGT SNOW  30  23  75 CALM      30.13S
STORM LAKE *   LGT SNOW  30  25  80 SE7       30.12S WCI  23
$$

IAZ055>058-069>071-079>083-090>094-280500-
   SOUTHWEST IOWA

CITY           SKY/WX    TMP DP  RH WIND       PRES   REMARKS
ATLANTIC *     MIX PCPN  36  25  64 SE5       30.13S WCI  32
AUDUBON *      FLURRIES  34  23  64 SE3       30.13S
CLARINDA *     CLOUDY    36  27  69 S5        30.15F WCI  32
COUNCIL BLFS * CLOUDY    36  21  55 S8        30.10S WCI  29
CRESTON *      MOCLDY    34  21  60 SW3       30.14S
HARLAN  *      MIX PCPN  34  25  69 SE7       30.14F WCI  28
LAMONI         CLOUDY    37  18  46 CALM      30.14F
RED OAK *      CLOUDY    36  25  64 SE8       30.13S WCI  29
SHENANDOAH *   CLOUDY    36  25  64 SE7       30.13F WCI  30
$$

IAZ047>049-059>061-072>074-084-280500-
   CENTRAL IOWA

CITY           SKY/WX    TMP DP  RH WIND       PRES   REMARKS
AMES           CLOUDY    29  18  63 E3        30.16R
ANKENY *       CLOUDY    32  14  47 CALM      30.16S
CHARITON *     CLOUDY    32  16  51 SE6       30.15F WCI  26
DES MOINES     CLOUDY    36  10  34 SE6       30.16S WCI  31
GRINNELL*      PTCLDY    27  14  59 E3        30.17S
KNOXVILLE *    CLOUDY    32  12  43 E6        30.16S WCI  26
MARSHALLTOWN   PTCLDY    27  18  69 E8        30.16S WCI  19
PELLA *        MOCLDY    30  18  59 SE3       30.18S
PERRY *        CLOUDY    34  21  60 SE6       30.14S WCI  29
$$

IAZ004>006-015-016-023>025-035-036-280500-
   NORTH CENTRAL IOWA

CITY           SKY/WX    TMP DP  RH WIND       PRES   REMARKS
ALGONA *       CLOUDY    32  21  64 SE8       30.14R WCI  25
CLARION *      CLOUDY    30  23  74 E6        30.15S WCI  24
ESTHERVILLE    CLOUDY    32  19  58 S10       30.12S WCI  24
FORT DODGE *   CLOUDY    30  18  59 E7        30.14F WCI  23
MASON CITY     MOCLDY    25  16  68 E8        30.18S WCI  16
FOREST CITY *  PTCLDY    27  19  74 E8        30.15S WCI  18
IOWA FALLS *     N/A     28  19  69 E7        30.17R WCI  21
$$

IAZ007>011-017>019-026>030-037>042-050>054-066-280500-
   NORTHEAST IOWA

CITY           SKY/WX    TMP DP  RH WIND       PRES   REMARKS
CEDAR RAPIDS   PTCLDY    26  12  55 E7        30.18S WCI  18
CHARLES CITY * CLOUDY    23  16  74 E6        30.18S WCI  16
CLINTON *      CLEAR     21  12  68 E5        30.23S WCI  15
DECORAH *      CLEAR     23  10  58 CALM      30.18S
DUBUQUE          N/A     21  10  62 CALM      30.19S
MONTICELLO *   CLEAR     23  18  80 CALM      30.20S
OELWEIN *      CLEAR     25  16  68 E5        30.19S WCI  19
WATERLOO       PTCLDY    22  14  71 E6        30.18F WCI  14
$$

IAZ064-065-067-068-078-280500-
   EAST CENTRAL IOWA

CITY           SKY/WX    TMP DP  RH WIND       PRES   REMARKS
DAVENPORT      CLEAR     25  11  55 E5        30.21R WCI  19
IOWA CITY      PTCLDY    25  14  63 CALM      30.22R
MT. PLEASANT * PTCLDY    27  14  59 E3        30.20R
MUSCATINE *    CLEAR     25  18  74 CALM      30.22R
QUAD CITIES    CLEAR     23  13  65 E5        30.21R WCI  17
$$

IAZ062-063-075>077-085>089-095>099-280500-
   SOUTHEAST IOWA

CITY           SKY/WX    TMP DP  RH WIND       PRES   REMARKS
BURLINGTON     PTCLDY    29  13  51 CALM      30.20R
FAIRFIELD *    PTCLDY    27  10  50 E5        30.19S WCI  21
FORT MADISON * CLEAR     28  10  47 CALM      30.21R
KEOKUK *       CLEAR     30  18  59 CALM      30.19S
OSKALOOSA *      N/A     28  14  54 E6        30.18S WCI  22
CENTERVILLE *  MOCLDY    32  14  47 E6        30.18S WCI  26
OTTUMWA        MOCLDY    31  11  43 E7        30.18R WCI  24
WASHINGTON *   CLEAR     28  10  47 E5        30.20R WCI  23
$$

ABBREVIATIONS USED IN REMARKS
   TC - TEMPERATURES IN CELSIUS
  WCI - WIND CHILL INDEX
   HX - HEAT INDEX
  VSB - VISIBILITY
$$



USA.gov is the U.S. government's official web portal to all federal, state and local government web resources and services.